Location: Moncton
(46.0878°N, 64.7782°W)
Time: 22:08:39
(UTC-03:00)

ISS - Visible Passes

Search period start: 29 July 2021 00:00
Search period end: 08 August 2021 00:00
Orbit: 419 x 421 km, 51.6° (Epoch: 29 July)

Date Brightness Start Highest point End Pass type
(mag) Time Alt. Az. Time Alt. Az. Time Alt. Az.
29 Jul -2.6 22:51:21 10° W 22:54:19 29° SW 22:54:48 28° SSW visible
30 Jul -3.1 22:03:51 10° WNW 22:07:06 45° SW 22:09:11 19° SSE visible
31 Jul -3.6 21:16:26 10° WNW 21:19:49 71° SSW 21:23:10 10° SE visible
31 Jul -1.2 22:54:51 10° WSW 22:56:06 12° SW 22:56:34 11° SW visible
01 Aug -1.6 22:06:33 10° W 22:08:58 18° SW 22:11:04 12° S visible
02 Aug -2.2 21:18:49 10° W 21:21:47 28° SW 21:24:44 10° SSE visible
04 Aug -1.0 21:22:20 10° WSW 21:23:31 11° SW 21:24:42 10° SSW visible
